N33M KLFT-KBHM

Flight info

Callsign N33M
Flight time 0h 50m
Altitude 35000
Route DILLS MCB LYMPH
Aircraft C750/M-VGDW/C

Departure

Time 2026-04-27 17:10
Airport Lafayette Regional Airport (KLFT)

Arrival

Time 2026-04-27 18:01
Airport Birmingham-Shuttlesworth International Airport (KBHM)
Time Latitude Longitude Altitude Speed Heading
2026-04-27 16:48 30.20954 -91.98903 37 ft 0 kts 108°
2026-04-27 17:06 30.20953 -91.98898 37 ft 0 kts 109°
2026-04-27 17:06 30.20947 -91.98878 37 ft 7 kts 108°
2026-04-27 17:06 30.20972 -91.98817 36 ft 10 kts 28°
2026-04-27 17:06 30.21036 -91.98749 34 ft 15 kts 56°
2026-04-27 17:07 30.21099 -91.98628 31 ft 19 kts 67°
2026-04-27 17:07 30.21077 -91.98520 31 ft 8 kts 126°
2026-04-27 17:07 30.21042 -91.98467 30 ft 8 kts 128°
2026-04-27 17:07 30.20998 -91.98402 30 ft 12 kts 118°
2026-04-27 17:08 30.21029 -91.98307 28 ft 15 kts 38°
2026-04-27 17:08 30.21138 -91.98209 24 ft 23 kts 38°
2026-04-27 17:08 30.21268 -91.98091 21 ft 23 kts 39°
2026-04-27 17:08 30.21383 -91.97976 19 ft 17 kts 54°
2026-04-27 17:09 30.21357 -91.97872 19 ft 14 kts 131°
2026-04-27 17:09 30.21279 -91.97827 19 ft 11 kts 195°
2026-04-27 17:09 30.21258 -91.97840 19 ft 0 kts 220°
2026-04-27 17:09 30.21253 -91.97845 19 ft 7 kts 220°
2026-04-27 17:10 30.20962 -91.98106 23 ft 102 kts 218°
2026-04-27 17:10 30.20207 -91.98827 142 ft 166 kts 219°
2026-04-27 17:10 30.19237 -91.99844 546 ft 211 kts 218°
2026-04-27 17:10 30.18042 -92.01035 1136 ft 250 kts 217°
2026-04-27 17:11 30.16599 -92.02457 1704 ft 290 kts 214°
2026-04-27 17:11 30.12447 -92.03072 2736 ft 331 kts 160°
2026-04-27 17:11 30.10582 -92.01548 3189 ft 333 kts 133°
2026-04-27 17:12 30.09584 -91.96501 3983 ft 337 kts 78°
2026-04-27 17:12 30.10729 -91.94192 4599 ft 330 kts 44°
2026-04-27 17:12 30.12431 -91.92676 5795 ft 296 kts 37°
2026-04-27 17:13 30.14032 -91.91192 6454 ft 308 kts 47°
2026-04-27 17:13 30.15195 -91.89111 7674 ft 309 kts 64°
2026-04-27 17:13 30.16111 -91.86916 8938 ft 308 kts 66°
2026-04-27 17:13 30.16963 -91.84693 10109 ft 309 kts 66°
2026-04-27 17:14 30.17822 -91.82432 11131 ft 315 kts 65°
2026-04-27 17:14 30.18704 -91.80101 12138 ft 320 kts 65°
2026-04-27 17:14 30.19584 -91.77769 13127 ft 324 kts 65°
2026-04-27 17:14 30.20480 -91.75393 14051 ft 329 kts 64°
2026-04-27 17:15 30.21427 -91.72936 14876 ft 335 kts 55°
2026-04-27 17:15 30.22985 -91.70977 15713 ft 336 kts 42°
2026-04-27 17:15 30.24529 -91.68955 16524 ft 343 kts 46°
2026-04-27 17:15 30.26116 -91.66867 17347 ft 348 kts 45°
2026-04-27 17:16 30.27718 -91.64735 18145 ft 353 kts 45°
2026-04-27 17:16 30.29331 -91.62592 18922 ft 358 kts 44°
2026-04-27 17:16 30.30963 -91.60426 19693 ft 362 kts 44°
2026-04-27 17:16 30.32619 -91.58219 20416 ft 366 kts 44°
2026-04-27 17:17 30.34314 -91.55965 21162 ft 369 kts 44°
2026-04-27 17:17 30.35992 -91.53731 21868 ft 373 kts 44°
2026-04-27 17:17 30.37686 -91.51474 22542 ft 376 kts 44°
2026-04-27 17:18 30.41143 -91.46864 23877 ft 384 kts 43°
2026-04-27 17:18 30.42892 -91.44527 24517 ft 387 kts 43°
2026-04-27 17:18 30.44677 -91.42143 25165 ft 390 kts 43°
2026-04-27 17:18 30.46445 -91.39786 25761 ft 393 kts 43°
2026-04-27 17:19 30.48257 -91.37360 26361 ft 396 kts 43°
2026-04-27 17:19 30.50065 -91.34942 26901 ft 400 kts 43°
2026-04-27 17:19 30.51880 -91.32514 27421 ft 404 kts 43°
2026-04-27 17:19 30.53737 -91.30031 27948 ft 407 kts 43°
2026-04-27 17:20 30.55575 -91.27559 28490 ft 409 kts 43°
2026-04-27 17:20 30.57449 -91.25047 28970 ft 412 kts 42°
2026-04-27 17:20 30.59310 -91.22549 29480 ft 414 kts 42°
2026-04-27 17:20 30.61206 -91.20003 29905 ft 417 kts 42°
2026-04-27 17:21 30.63096 -91.17462 30328 ft 420 kts 42°
2026-04-27 17:21 30.65024 -91.14871 30767 ft 422 kts 42°
2026-04-27 17:21 30.66931 -91.12303 31174 ft 425 kts 42°
2026-04-27 17:21 30.68885 -91.09668 31575 ft 428 kts 42°
2026-04-27 17:22 30.70826 -91.07061 31962 ft 431 kts 42°
2026-04-27 17:22 30.72794 -91.04404 32323 ft 434 kts 42°
2026-04-27 17:22 30.74744 -91.01770 32727 ft 435 kts 42°
2026-04-27 17:22 30.76737 -90.99075 33021 ft 440 kts 42°
2026-04-27 17:23 30.78718 -90.96403 33408 ft 441 kts 42°
2026-04-27 17:23 30.80739 -90.93664 33729 ft 445 kts 42°
2026-04-27 17:23 30.82747 -90.90954 34069 ft 447 kts 42°
2026-04-27 17:23 30.84783 -90.88193 34428 ft 449 kts 42°
2026-04-27 17:24 30.86803 -90.85454 34754 ft 452 kts 41°
2026-04-27 17:24 30.88872 -90.82649 34991 ft 457 kts 41°
2026-04-27 17:24 30.93080 -90.76945 35008 ft 476 kts 42°
2026-04-27 17:25 30.97461 -90.70987 35010 ft 492 kts 42°
2026-04-27 17:25 31.01969 -90.64848 35015 ft 504 kts 43°
2026-04-27 17:26 31.06576 -90.58562 35013 ft 516 kts 43°
2026-04-27 17:26 31.11292 -90.52119 35019 ft 526 kts 43°
2026-04-27 17:27 31.16045 -90.45609 35024 ft 535 kts 43°
2026-04-27 17:27 31.20901 -90.38947 35023 ft 540 kts 43°
2026-04-27 17:28 31.25765 -90.32272 34999 ft 542 kts 44°
2026-04-27 17:29 31.33205 -90.22397 34995 ft 541 kts 44°
2026-04-27 17:29 31.37942 -90.15559 35008 ft 541 kts 44°
2026-04-27 17:30 31.42801 -90.08849 35001 ft 540 kts 44°
2026-04-27 17:30 31.50074 -89.98817 34997 ft 540 kts 44°
2026-04-27 17:31 31.54909 -89.92134 35004 ft 539 kts 44°
2026-04-27 17:31 31.59781 -89.85387 35013 ft 539 kts 44°
2026-04-27 17:32 31.66988 -89.75384 35012 ft 538 kts 44°
2026-04-27 17:33 31.71798 -89.68695 35009 ft 537 kts 44°
2026-04-27 17:33 31.76601 -89.61999 35011 ft 536 kts 44°
2026-04-27 17:34 31.81386 -89.55325 35010 ft 536 kts 44°
2026-04-27 17:34 31.86162 -89.48645 35006 ft 535 kts 44°
2026-04-27 17:35 31.90968 -89.41917 35012 ft 534 kts 44°
2026-04-27 17:35 31.95721 -89.35241 35010 ft 533 kts 44°
2026-04-27 17:36 32.00483 -89.28547 34996 ft 533 kts 44°
2026-04-27 17:36 32.05223 -89.21877 35005 ft 532 kts 44°
2026-04-27 17:37 32.09950 -89.15199 35003 ft 532 kts 44°
2026-04-27 17:37 32.14695 -89.08499 35013 ft 532 kts 44°
2026-04-27 17:38 32.19397 -89.01842 35019 ft 531 kts 45°
2026-04-27 17:38 32.24119 -88.95145 35017 ft 531 kts 44°
2026-04-27 17:39 32.28834 -88.88447 35022 ft 530 kts 45°
2026-04-27 17:39 32.33572 -88.81703 35035 ft 530 kts 44°
2026-04-27 17:40 32.38282 -88.74985 35029 ft 530 kts 45°
2026-04-27 17:40 32.42994 -88.68251 35036 ft 530 kts 45°
2026-04-27 17:41 32.47696 -88.61520 35042 ft 530 kts 45°
2026-04-27 17:41 32.52391 -88.54791 35038 ft 530 kts 45°
2026-04-27 17:42 32.57056 -88.48090 35040 ft 529 kts 45°
2026-04-27 17:42 32.61698 -88.41408 35044 ft 517 kts 45°
2026-04-27 17:43 32.66191 -88.34932 35035 ft 501 kts 45°
2026-04-27 17:43 32.70558 -88.28629 35003 ft 492 kts 45°
2026-04-27 17:44 32.74870 -88.22394 34992 ft 488 kts 45°
2026-04-27 17:44 32.79156 -88.16185 34977 ft 485 kts 45°
2026-04-27 17:44 32.81306 -88.13065 34629 ft 482 kts 45°
2026-04-27 17:45 32.83406 -88.10020 33968 ft 478 kts 45°
2026-04-27 17:45 32.85498 -88.06984 33300 ft 475 kts 45°
2026-04-27 17:45 32.87592 -88.03936 32663 ft 471 kts 45°
2026-04-27 17:45 32.89661 -88.00929 32031 ft 468 kts 46°
2026-04-27 17:46 32.91699 -87.97955 31395 ft 466 kts 46°
2026-04-27 17:46 32.93729 -87.94995 30757 ft 463 kts 46°
2026-04-27 17:46 32.95766 -87.92029 30120 ft 461 kts 46°
2026-04-27 17:46 32.97764 -87.89114 29486 ft 458 kts 47°
2026-04-27 17:47 32.99782 -87.86162 28833 ft 456 kts 47°
2026-04-27 17:47 33.00435 -87.85204 28624 ft 455 kts 46°
2026-04-27 17:47 33.03731 -87.80379 27554 ft 451 kts 46°
2026-04-27 17:47 33.05729 -87.77451 26773 ft 449 kts 47°
2026-04-27 17:48 33.07679 -87.74594 26010 ft 447 kts 47°
2026-04-27 17:48 33.09631 -87.71732 25250 ft 445 kts 47°
2026-04-27 17:48 33.11577 -87.68880 24493 ft 442 kts 47°
2026-04-27 17:48 33.13502 -87.66048 23725 ft 439 kts 47°
2026-04-27 17:49 33.15407 -87.63242 22968 ft 437 kts 47°
2026-04-27 17:49 33.17310 -87.60442 22236 ft 433 kts 47°
2026-04-27 17:49 33.19204 -87.57655 21480 ft 429 kts 47°
2026-04-27 17:49 33.21061 -87.54911 20747 ft 424 kts 47°
2026-04-27 17:50 33.22921 -87.52174 19995 ft 420 kts 47°
2026-04-27 17:50 33.26537 -87.46833 18524 ft 408 kts 47°
2026-04-27 17:50 33.28286 -87.44247 17780 ft 400 kts 47°
2026-04-27 17:51 33.30019 -87.41688 17024 ft 393 kts 47°
2026-04-27 17:51 33.31709 -87.39181 16289 ft 387 kts 47°
2026-04-27 17:51 33.33386 -87.36704 15553 ft 381 kts 47°
2026-04-27 17:51 33.35050 -87.34234 14811 ft 374 kts 48°
2026-04-27 17:52 33.36634 -87.31883 13931 ft 355 kts 49°
2026-04-27 17:52 33.37788 -87.29376 13166 ft 340 kts 70°
2026-04-27 17:52 33.38453 -87.26729 12428 ft 325 kts 71°
2026-04-27 17:52 33.38875 -87.25056 11932 ft 317 kts 71°
2026-04-27 17:53 33.39687 -87.21781 10940 ft 304 kts 72°
2026-04-27 17:53 33.40281 -87.19388 10192 ft 297 kts 72°
2026-04-27 17:53 33.40859 -87.17051 9476 ft 291 kts 73°
2026-04-27 17:53 33.41417 -87.14780 8753 ft 285 kts 73°
2026-04-27 17:54 33.41971 -87.12548 8035 ft 281 kts 73°
2026-04-27 17:54 33.42536 -87.10313 7293 ft 276 kts 73°
2026-04-27 17:54 33.43107 -87.08144 6561 ft 273 kts 73°
2026-04-27 17:54 33.43670 -87.06012 5824 ft 270 kts 78°
2026-04-27 17:55 33.43999 -87.03867 5146 ft 259 kts 84°
2026-04-27 17:55 33.44289 -87.01779 4411 ft 253 kts 83°
2026-04-27 17:55 33.44585 -86.99777 4040 ft 233 kts 84°
2026-04-27 17:55 33.44872 -86.97903 3990 ft 227 kts 83°
2026-04-27 17:56 33.45156 -86.96057 3941 ft 218 kts 83°
2026-04-27 17:56 33.45544 -86.94418 3863 ft 197 kts 66°
2026-04-27 17:56 33.46244 -86.93050 3620 ft 187 kts 61°
2026-04-27 17:56 33.46968 -86.91820 3414 ft 181 kts 60°
2026-04-27 17:57 33.47673 -86.90601 3187 ft 174 kts 61°
2026-04-27 17:57 33.48351 -86.89434 2949 ft 167 kts 62°
2026-04-27 17:57 33.49000 -86.88317 2732 ft 162 kts 61°
2026-04-27 17:57 33.49638 -86.87218 2516 ft 154 kts 62°
2026-04-27 17:58 33.50233 -86.86199 2315 ft 147 kts 63°
2026-04-27 17:58 33.50820 -86.85186 2145 ft 149 kts 63°
2026-04-27 17:58 33.51421 -86.84142 1977 ft 153 kts 62°
2026-04-27 17:58 33.52030 -86.83105 1779 ft 150 kts 65°
2026-04-27 17:59 33.52595 -86.82117 1567 ft 139 kts 64°
2026-04-27 17:59 33.53140 -86.81179 1397 ft 141 kts 65°
2026-04-27 17:59 33.53709 -86.80193 1214 ft 141 kts 63°
2026-04-27 17:59 33.54259 -86.79243 1033 ft 139 kts 63°
2026-04-27 18:00 33.54811 -86.78290 865 ft 139 kts 60°
2026-04-27 18:00 33.55370 -86.77340 696 ft 140 kts 59°
2026-04-27 18:00 33.55927 -86.76375 620 ft 133 kts 59°
2026-04-27 18:00 33.56294 -86.75628 616 ft 75 kts 44°
2026-04-27 18:01 33.56553 -86.75271 623 ft 41 kts 51°
2026-04-27 18:01 33.56649 -86.75105 627 ft 18 kts 75°
2026-04-27 18:01 33.56625 -86.75001 627 ft 1 kts 122°
2026-04-27 18:02 33.56615 -86.74978 626 ft 8 kts 112°
2026-04-27 18:02 33.56607 -86.74902 627 ft 9 kts 83°
2026-04-27 18:02 33.56632 -86.74822 629 ft 14 kts 62°
2026-04-27 18:02 33.56644 -86.74693 630 ft 15 kts 93°
2026-04-27 18:03 33.56641 -86.74565 630 ft 16 kts 91°
2026-04-27 18:03 33.56640 -86.74423 632 ft 15 kts 92°
2026-04-27 18:03 33.56620 -86.74316 634 ft 10 kts 115°
2026-04-27 18:03 33.56593 -86.74276 635 ft 0 kts 148°